"Pseudo-MPEC" for or02060

Created 2023 Jan 27 16:22:28 UT using Find_Orb

Click here for an explanation of pseudo-MPECs

 
 Astrometry: 
     or02060*KC2023 01 22M=\SSHVEAstrometry/Gn`Q3U;#HUredacted;[c@WJY')bdV%m2J43
     or02060 KC2023 01 22ZoiclickY$jM?hereA:t6;R_J3jj'$K0f6@Epg1*\d;jkZefor,.J43
     or02060 KC2023 01 22!`;%sqI=xMibmY]lOJ$Za$xIi64ODjP+_/XWYP/,sexplanationJ43

Station data:
(J43) Oukaïmeden Observatory, Marrakech  (N31.206437 W7.866460)  Morocco.
   Observer C. Rinner. Measurers C. Rinner, M. Ory. 0.5-m f/3 reflector + CCD.

Orbital elements:  or02060
   Perihelion 2022 Sep 6.55072 +/- 83.3 TT = 13:13:02 (JD 2459829.05072)
Epoch 2023 Jan 22.0 TT = JDT 2459966.5   Earth MOID: 0.0223      AutoNEOCP
M 149.66013158 +/- 110              (J2000 ecliptic)
n   1.08883896 +/- 0.589            Peri.   26.04749 +/- 60
a   0.93575095 +/- 0.337            Node   300.53258 +/- 25
e   0.1018852 +/- 0.222             Incl.    3.05848 +/- 41
P   0.91/330.62d           H 27.96  G  0.15   U 12.4  SR
q 0.84041175 +/- 0.352    Q 1.03109015 +/- 13.8
From 3 observations 2023 Jan. 22 (21.5 min); mean residual 0".14
Residuals in arcseconds: 
230122 J43  .11-  .09-    230122 J43  .22+  .17+    230122 J43  .11-  .09-    

Ephemerides (geocentric):
Date (UTC) HH   RA             Dec           delta  r     elong  mag " sig PA
---- --------  ------------   ------------  ------ ------ -----  --- --------
2023 01 27 16  07 44 16.943   +12 54 15.98  .04060 1.0241 165.9 21.9  39d 167
2023 01 27 17  07 43 58.274   +12 52 29.06  .04064 1.0242 165.8 21.9  39d 167
2023 01 27 18  07 43 39.653   +12 50 42.31  .04068 1.0242 165.7 21.9  40d 167
2023 01 27 19  07 43 21.079   +12 48 55.72  .04073 1.0242 165.6 21.9  40d 167
2023 01 27 20  07 43 02.554   +12 47 09.30  .04077 1.0242 165.4 21.9  40d 167
2023 01 27 21  07 42 44.077   +12 45 23.05  .04081 1.0243 165.3 21.9  40d 167
2023 01 27 22  07 42 25.648   +12 43 36.96  .04085 1.0243 165.2 21.9  40d 167
2023 01 27 23  07 42 07.266   +12 41 51.05  .04089 1.0243 165.1 21.9  40d 167
2023 01 28 00  07 41 48.933   +12 40 05.30  .04094 1.0244 165.0 21.9  40d 167
2023 01 28 01  07 41 30.647   +12 38 19.72  .04098 1.0244 164.9 21.9  40d 167
2023 01 28 02  07 41 12.410   +12 36 34.31  .04102 1.0244 164.8 21.9  40d 167
2023 01 28 03  07 40 54.220   +12 34 49.07  .04106 1.0244 164.6 22.0  40d 167
2023 01 28 04  07 40 36.078   +12 33 04.01  .04111 1.0245 164.5 22.0  40d 167
2023 01 28 05  07 40 17.984   +12 31 19.11  .04115 1.0245 164.4 22.0  40d 167
2023 01 28 06  07 39 59.937   +12 29 34.39  .04119 1.0245 164.3 22.0  40d 167
2023 01 28 07  07 39 41.938   +12 27 49.84  .04124 1.0245 164.2 22.0  40d 167
2023 01 28 08  07 39 23.987   +12 26 05.47  .04128 1.0246 164.1 22.0  40d 167
2023 01 28 09  07 39 06.084   +12 24 21.27  .04132 1.0246 164.0 22.0  40d 167
2023 01 28 10  07 38 48.228   +12 22 37.25  .04137 1.0246 163.8 22.0  40d 167
2023 01 28 11  07 38 30.419   +12 20 53.41  .04141 1.0246 163.7 22.0  40d 167
2023 01 28 12  07 38 12.659   +12 19 09.74  .04145 1.0247 163.6 22.0  40d 167
2023 01 28 13  07 37 54.945   +12 17 26.24  .04150 1.0247 163.5 22.0  40d 167
2023 01 28 14  07 37 37.279   +12 15 42.93  .04154 1.0247 163.4 22.0  40d 167
2023 01 28 15  07 37 19.661   +12 13 59.79  .04158 1.0247 163.3 22.0  41d 167
2023 01 28 16  07 37 02.089   +12 12 16.84  .04163 1.0248 163.2 22.0  41d 167
2023 01 28 17  07 36 44.565   +12 10 34.06  .04167 1.0248 163.1 22.0  41d 167
2023 01 28 18  07 36 27.089   +12 08 51.46  .04172 1.0248 162.9 22.0  41d 167
2023 01 28 19  07 36 09.659   +12 07 09.05  .04176 1.0248 162.8 22.0  41d 167
2023 01 28 20  07 35 52.277   +12 05 26.81  .04181 1.0248 162.7 22.1  41d 167
2023 01 28 21  07 35 34.942   +12 03 44.76  .04185 1.0249 162.6 22.1  41d 167
2023 01 28 22  07 35 17.654   +12 02 02.88  .04190 1.0249 162.5 22.1  41d 167
2023 01 28 23  07 35 00.412   +12 00 21.19  .04194 1.0249 162.4 22.1  41d 167
2023 01 29 00  07 34 43.218   +11 58 39.69  .04199 1.0249 162.3 22.1  41d 167
2023 01 29 01  07 34 26.071   +11 56 58.36  .04203 1.0250 162.2 22.1  41d 167
2023 01 29 02  07 34 08.971   +11 55 17.23  .04208 1.0250 162.1 22.1  41d 167
2023 01 29 03  07 33 51.917   +11 53 36.27  .04212 1.0250 161.9 22.1  41d 167
2023 01 29 04  07 33 34.910   +11 51 55.50  .04217 1.0250 161.8 22.1  41d 167
2023 01 29 05  07 33 17.950   +11 50 14.92  .04221 1.0251 161.7 22.1  41d 167
2023 01 29 06  07 33 01.037   +11 48 34.52  .04226 1.0251 161.6 22.1  41d 167
2023 01 29 07  07 32 44.170   +11 46 54.31  .04230 1.0251 161.5 22.1  41d 167
2023 01 29 08  07 32 27.350   +11 45 14.28  .04235 1.0251 161.4 22.1  41d 167
2023 01 29 09  07 32 10.576   +11 43 34.44  .04240 1.0252 161.3 22.1  41d 167
2023 01 29 10  07 31 53.849   +11 41 54.79  .04244 1.0252 161.2 22.1  41d 167
2023 01 29 11  07 31 37.168   +11 40 15.33  .04249 1.0252 161.1 22.1  41d 167
2023 01 29 12  07 31 20.533   +11 38 36.06  .04253 1.0252 161.0 22.1  41d 167
2023 01 29 13  07 31 03.945   +11 36 56.97  .04258 1.0253 160.8 22.2  42d 167
2023 01 29 14  07 30 47.403   +11 35 18.07  .04263 1.0253 160.7 22.2  42d 167
2023 01 29 15  07 30 30.907   +11 33 39.37  .04267 1.0253 160.6 22.2  42d 167